TimePST,TemperatureF,Dew PointF,Humidity,Sea Level PressureIn,VisibilityMPH,Wind Direction,Wind SpeedMPH,Gust SpeedMPH,PrecipitationIn,Events,Conditions,WindDirDegrees,DateUTC
12:55 AM,24.1,19.0,81,30.38,8.0,Calm,Calm,-,N/A,,Clear,0,2013-01-22 08:55:00
1:55 AM,21.9,17.1,82,30.36,9.0,Calm,Calm,-,N/A,,Clear,0,2013-01-22 09:55:00
2:55 AM,21.0,16.0,81,30.34,9.0,Calm,Calm,-,N/A,,Clear,0,2013-01-22 10:55:00
3:55 AM,21.0,16.0,81,30.32,8.0,Calm,Calm,-,N/A,,Clear,0,2013-01-22 11:55:00
4:55 AM,19.9,16.0,85,30.32,8.0,Calm,Calm,-,N/A,,Clear,0,2013-01-22 12:55:00
5:55 AM,19.9,15.1,81,30.35,8.0,Calm,Calm,-,N/A,,Clear,0,2013-01-22 13:55:00
6:55 AM,19.0,14.0,81,30.35,8.0,Calm,Calm,-,N/A,,Partly Cloudy,0,2013-01-22 14:55:00
7:55 AM,19.9,16.0,85,30.35,7.0,Calm,Calm,-,N/A,,Scattered Clouds,0,2013-01-22 15:55:00
8:55 AM,23.0,19.0,85,30.36,6.0,Calm,Calm,-,N/A,,Mostly Cloudy,0,2013-01-22 16:55:00
9:55 AM,28.0,19.9,72,30.36,6.0,Calm,Calm,-,N/A,,Haze,0,2013-01-22 17:55:00
10:55 AM,30.9,19.9,64,30.34,7.0,Calm,Calm,-,N/A,,Overcast,0,2013-01-22 18:55:00
11:55 AM,35.1,19.0,52,30.30,10.0,Calm,Calm,-,N/A,,Overcast,0,2013-01-22 19:55:00
12:55 PM,39.9,19.0,43,30.26,10.0,Calm,Calm,-,N/A,,Overcast,0,2013-01-22 20:55:00
1:55 PM,41.0,19.9,43,30.24,10.0,Calm,Calm,-,N/A,,Mostly Cloudy,0,2013-01-22 21:55:00
2:55 PM,44.1,21.0,40,30.21,10.0,Calm,Calm,-,N/A,,Mostly Cloudy,0,2013-01-22 22:55:00
3:55 PM,43.0,19.9,40,30.21,10.0,Calm,Calm,-,N/A,,Overcast,0,2013-01-22 23:55:00
4:55 PM,42.1,19.9,41,30.22,10.0,Calm,Calm,-,N/A,,Mostly Cloudy,0,2013-01-23 00:55:00
5:55 PM,37.9,21.0,51,30.23,10.0,Calm,Calm,-,N/A,,Mostly Cloudy,0,2013-01-23 01:55:00
6:55 PM,34.0,23.0,64,30.24,10.0,Calm,Calm,-,N/A,,Overcast,0,2013-01-23 02:55:00
7:55 PM,34.0,23.0,64,30.23,10.0,Calm,Calm,-,N/A,,Mostly Cloudy,0,2013-01-23 03:55:00
8:55 PM,33.1,23.0,66,30.25,10.0,Calm,Calm,-,N/A,,Mostly Cloudy,0,2013-01-23 04:55:00
9:55 PM,30.9,21.9,69,30.23,10.0,Calm,Calm,-,N/A,,Overcast,0,2013-01-23 05:55:00
10:55 PM,30.9,23.0,72,30.24,10.0,Calm,Calm,-,N/A,,Overcast,0,2013-01-23 06:55:00
11:55 PM,30.0,23.0,75,30.22,10.0,Calm,Calm,-,N/A,,Mostly Cloudy,0,2013-01-23 07:55:00